EHI
4 3 2 4 8 8 8 7 5 3 1 1 0 0 0 0 0 0 0 0 0 0 0 0 0 0 0 0 0 0 0 0 0 0 0 0 0 0 0 0 0 0 0
6 5 5 7 10 10 9 8 6 2 1 1 0 0 0 0 1 1 1 0 0 0 0 0 0 0 0 0 0 0 0 0 0 0 0 0 0 0 0 0 0 0 0
6 7 9 12 13 11 10 10 6 2 1 1 0 0 0 1 2 2 1 0 0 1 1 0 0 0 0 0 0 0 0 0 0 0 0 0 0 0 0 0 0 0 0
7 8 12 15 14 12 11 9 6 2 0 0 0 0 0 2 3 2 2 1 1 1 2 1 0 0 0 0 0 0 0 0 0 0 0 0 0 0 0 0 0 0 0
7 9 13 15 14 12 12 11 7 3 1 1 0 0 1 2 2 2 2 1 1 1 1 1 0 0 0 0 0 0 0 0 0 0 0 0 0 0 0 0 0 0 0
8 9 12 14 14 13 14 13 9 4 3 3 1 1 1 2 1 1 1 1 0 0 0 0 0 0 0 0 0 0 0 0 0 0 1 0 0 0 0 0 0 0 0
9 9 10 13 16 17 18 16 10 6 4 4 3 1 1 2 1 1 0 0 0 0 0 0 0 0 0 0 0 0 1 1 0 0 0 0 0 0 0 0 0 0 0
11 10 10 12 17 22 23 19 13 10 7 5 4 3 1 1 1 0 0 0 0 0 0 0 0 0 0 0 0 0 1 1 2 1 0 0 0 0 0 0 0 1 1
12 11 9 11 16 23 25 22 17 14 12 9 7 5 3 2 1 1 0 1 1 1 0 0 0 0 0 0 0 1 1 2 2 1 0 0 1 1 0 0 0 1 2
12 10 8 10 15 22 27 25 20 18 17 16 13 10 8 6 5 4 3 2 1 1 1 1 0 0 0 0 1 2 2 1 1 1 0 0 1 1 0 0 0 1 2
9 8 7 9 13 20 27 27 24 22 22 22 21 19 14 10 9 8 6 4 2 3 3 2 1 0 0 1 2 2 2 1 0 0 0 0 1 1 1 1 0 0 1
6 7 8 10 13 19 27 29 26 25 25 26 27 25 20 14 10 9 8 7 6 6 6 4 2 1 1 2 2 2 1 1 1 1 1 1 2 2 2 1 0 0 0
7 7 10 12 14 19 25 28 28 27 27 29 30 27 23 18 14 11 11 11 10 9 8 7 5 3 3 3 3 3 2 2 2 2 2 3 3 3 2 1 0 0 0
8 8 10 13 16 18 21 25 27 28 30 32 31 27 23 22 18 13 12 12 12 11 9 8 6 4 4 4 3 3 3 3 3 3 3 2 2 2 1 0 0 0 0
7 9 11 14 17 18 17 19 25 29 32 33 30 25 23 22 18 12 10 11 12 11 9 8 6 5 5 4 3 3 3 3 3 2 1 1 1 1 0 0 0 0 1
6 9 13 15 18 19 17 18 24 30 33 34 29 24 22 22 17 11 9 10 10 9 8 7 5 5 5 3 2 2 3 3 2 1 1 1 0 0 0 0 0 0 1
8 11 15 16 18 20 20 20 24 30 34 34 29 24 23 21 17 13 12 11 9 8 7 5 4 4 4 2 1 1 1 2 1 0 0 0 0 1 2 1 1 1 1
11 14 16 18 20 23 23 24 26 31 34 33 27 22 21 20 17 16 15 13 10 8 7 5 5 4 3 1 0 0 0 0 0 0 0 0 1 2 2 2 2 2 2
12 16 19 21 23 25 26 26 28 31 32 28 23 20 19 18 18 17 16 13 10 8 7 6 6 5 3 1 0 0 0 0 0 0 0 0 1 2 2 2 3 3 3
15 18 23 25 24 25 26 25 24 26 25 21 19 18 19 19 19 18 15 11 8 7 6 6 5 4 3 2 1 0 0 0 0 0 0 0 1 1 0 1 2 2 2
20 22 24 25 24 24 26 24 21 20 19 17 17 17 19 19 18 16 14 11 8 6 5 4 3 3 3 3 1 0 0 0 0 0 0 0 0 0 0 0 1 1 1
23 23 23 24 24 25 28 27 23 20 18 17 17 16 16 17 17 14 11 10 8 6 4 3 3 3 3 3 2 0 0 0 0 0 0 0 0 0 0 0 0 0 0
22 22 23 23 25 26 27 27 23 20 18 17 16 14 12 13 13 11 9 8 7 5 4 3 3 3 3 3 2 0 0 0 0 0 0 0 0 0 0 0 0 0 0
20 22 23 23 24 25 24 22 20 18 16 14 12 10 8 9 9 8 6 5 4 4 3 3 3 3 3 3 2 1 0 0 0 0 0 0 0 0 0 0 0 0 0
20 21 22 22 22 22 21 18 16 14 12 10 9 7 6 6 6 6 4 3 3 3 3 3 3 3 3 3 2 1 0 0 0 0 0 0 0 0 0 0 0 0 0
20 21 21 21 21 21 19 16 14 11 8 7 7 7 7 7 6 6 4 3 3 3 3 3 3 3 3 3 2 1 0 0 0 0 0 0 0 0 0 0 0 0 0
Wind_Speed
7 7 7 7 7 6 6 6 5 4 4 2 2 1 1 0 1 1 1 1 1 1 1 1 0 0 0 0 0 1 1 0 1 1 2 2 1 0 1 2 2 3 4
6 7 7 7 7 8 7 7 6 5 5 3 2 2 2 1 1 1 1 1 1 1 1 1 1 0 0 0 0 1 0 1 1 1 1 2 3 2 1 1 2 3 2
10 9 8 8 7 8 9 9 7 6 5 4 3 2 2 1 1 1 1 1 1 1 1 1 1 1 1 1 1 1 2 1 0 0 2 1 1 2 2 1 1 1 2
9 9 9 9 10 10 8 7 7 6 5 5 4 4 3 2 2 1 1 1 0 1 1 1 1 1 1 1 1 1 2 2 1 0 1 1 2 1 1 1 1 1 2
10 10 12 11 10 9 8 7 7 6 5 5 5 4 3 2 1 0 1 1 1 1 1 2 2 2 1 2 2 1 1 1 1 1 1 1 1 1 1 2 2 1 1
10 10 8 7 8 8 7 7 7 6 6 6 5 5 5 3 2 1 1 1 1 1 2 2 2 2 2 2 2 2 2 1 1 1 1 1 1 2 2 2 2 1 1
10 10 10 10 10 10 10 8 8 7 6 6 6 5 5 5 4 3 3 2 1 1 2 2 2 2 3 2 2 1 1 1 1 1 1 1 2 1 2 2 2 1 1
8 9 10 10 10 11 10 10 9 8 7 7 6 5 5 4 3 3 3 3 3 3 2 2 2 2 2 2 1 1 1 1 2 1 1 1 1 1 2 2 2 1 1
8 8 8 8 9 10 10 11 10 9 8 8 6 5 5 4 4 3 3 2 2 2 2 2 2 2 2 2 2 1 2 1 2 2 2 1 1 1 2 2 2 2 1
6 7 7 8 9 9 8 8 9 9 8 8 7 6 6 5 4 3 3 2 2 1 1 1 1 1 1 1 1 1 1 1 1 1 1 1 1 1 1 1 1 2 2
6 6 6 7 7 7 8 8 8 8 7 7 7 5 4 4 3 3 3 2 1 1 1 1 1 0 0 0 1 0 0 0 1 0 1 0 0 0 0 0 0 1 1
4 4 4 5 6 7 8 8 7 7 7 6 5 5 4 3 3 3 2 2 1 1 1 1 1 1 1 1 1 0 0 0 0 0 1 0 1 1 0 0 1 1 1
2 2 3 5 6 6 7 8 8 7 6 6 6 5 4 4 4 3 3 2 2 1 0 1 1 1 1 1 1 1 1 1 0 0 0 0 0 0 1 1 1 1 2
3 3 3 4 5 5 6 7 7 6 6 6 6 6 5 5 4 3 3 3 2 1 1 1 1 1 1 1 1 2 1 1 1 1 0 0 1 1 0 1 1 2 3
3 4 4 4 4 4 4 5 5 6 7 7 6 5 4 4 3 3 3 3 3 2 1 1 1 1 1 1 2 2 2 1 1 1 1 1 1 2 2 2 2 2 2
3 3 4 4 5 5 5 5 5 6 6 7 6 5 5 4 3 3 2 2 2 2 2 1 1 1 1 1 2 2 2 2 1 1 0 1 2 3 4 4 4 3 3
5 5 4 4 4 5 5 6 6 7 7 6 6 5 5 5 4 3 3 2 2 2 3 2 1 1 1 2 2 3 2 2 1 1 0 1 2 3 3 4 5 4 4
4 4 4 3 3 4 4 5 6 7 7 6 6 5 5 5 4 4 3 2 2 2 2 2 2 2 3 4 4 4 3 2 2 2 2 2 2 2 3 3 4 3 3
3 4 4 4 4 4 5 6 5 6 6 6 6 5 5 5 5 5 3 3 3 3 3 3 3 4 5 6 5 5 3 3 3 3 3 3 2 4 4 4 4 3 3
3 4 4 5 5 4 5 7 6 5 5 5 6 6 6 5 5 5 4 3 4 4 4 4 4 4 4 5 6 4 3 3 3 3 4 5 4 4 4 3 3 3 2
4 5 5 5 4 5 7 7 5 4 4 4 5 5 5 5 5 5 4 5 5 5 5 5 5 5 5 5 6 5 3 3 3 3 3 4 6 6 5 4 3 2 2
5 5 6 5 4 4 6 6 4 4 5 5 6 5 5 5 5 6 5 5 5 5 4 4 4 4 4 5 5 6 5 4 4 3 3 4 6 7 7 5 5 5 4
4 4 6 6 4 3 5 6 3 4 6 6 6 5 5 5 5 5 6 4 4 4 3 3 3 3 3 4 6 7 7 7 5 4 6 6 7 7 6 8 7 5 4
4 4 6 6 4 3 4 5 5 6 7 7 6 5 6 6 5 4 4 4 3 3 3 3 2 2 2 3 3 3 4 6 6 5 6 8 9 7 6 6 5 4 4
4 4 5 5 4 4 4 4 5 6 7 6 5 5 5 6 6 5 4 4 3 2 3 2 2 2 2 1 2 3 3 3 3 4 4 4 4 5 5 4 5 4 4
4 4 4 4 4 4 4 3 4 6 7 6 5 4 4 4 5 6 6 9 7 7 6 5 4 3 4 4 5 6 6 6 6 5 4 4 4 4 3 3 4 4 4
Wind_Direction
209 193 189 182 175 177 180 182 176 171 153 141 150 147 193 228 251 242 236 233 229 212 187 216 237 159 125 175 51 86 43 14 81 68 17 7 14 233 233 229 224 225 223
199 191 185 180 183 185 188 188 186 178 175 170 158 156 160 182 211 272 285 253 233 234 227 226 256 243 233 322 134 121 104 327 71 109 70 2 356 359 355 230 217 228 227
202 196 189 187 186 192 193 193 192 187 183 166 129 104 78 50 50 357 307 289 253 226 234 213 210 231 208 226 225 191 180 217 326 135 149 145 256 312 336 328 262 227 222
201 195 193 191 194 200 194 192 189 189 182 166 161 158 164 182 208 207 250 304 296 246 239 236 220 224 213 218 232 191 184 178 222 247 215 187 171 191 314 333 317 271 251
199 199 200 199 195 193 191 189 186 191 185 176 178 173 179 187 178 175 268 294 298 269 231 224 222 230 226 226 229 190 184 186 201 199 194 165 134 187 205 278 309 334 288
201 201 197 188 189 185 186 185 185 194 188 182 182 180 185 184 180 210 237 264 278 277 255 226 214 227 230 230 231 218 197 197 208 206 180 173 178 195 195 232 267 299 311
196 191 189 189 189 186 189 186 187 196 190 184 189 190 190 187 197 210 219 228 245 256 257 239 221 228 235 233 225 209 211 198 199 222 217 205 223 204 188 204 241 265 305
194 194 194 194 194 192 190 187 191 195 186 184 191 191 191 191 202 209 212 221 230 240 243 234 226 227 230 231 210 195 211 195 201 222 214 222 240 217 206 201 192 244 317
193 193 191 192 194 194 192 191 190 189 187 187 181 182 190 197 206 208 209 225 235 237 233 228 228 230 229 222 198 201 224 202 201 214 209 217 250 231 228 209 195 197 233
194 193 191 192 195 191 188 185 185 187 186 183 186 191 194 199 200 195 205 217 225 221 196 229 240 247 250 232 196 208 225 201 225 204 174 183 261 271 244 222 216 206 199
205 204 197 190 184 175 173 176 180 179 180 186 187 190 189 186 183 190 200 207 214 204 206 220 186 150 108 100 125 169 149 198 284 284 129 352 25 44 352 98 163 178 164
200 190 180 169 172 173 170 172 173 181 186 183 177 181 175 169 179 186 191 183 188 205 193 172 132 138 142 133 135 186 124 148 304 322 76 358 46 36 11 86 108 132 150
149 146 157 167 174 175 172 170 172 179 177 167 164 166 165 170 183 181 174 160 172 200 134 118 137 165 160 144 161 165 163 156 128 80 120 267 89 40 4 54 100 111 113
150 154 166 174 173 171 170 169 171 166 159 157 161 167 175 177 178 170 164 166 166 166 165 156 172 184 178 150 150 147 142 117 79 39 5 253 161 183 149 87 95 107 106
146 167 173 168 157 153 152 156 161 161 158 158 162 170 166 154 149 152 165 168 149 147 160 160 160 171 156 154 152 158 153 143 110 59 32 38 88 100 113 116 128 123 118
178 178 166 153 154 153 151 152 156 157 154 158 160 154 147 145 143 146 144 119 108 114 117 123 122 115 112 94 124 139 153 147 142 123 50 37 61 76 83 90 97 115 137
177 173 168 163 162 160 156 161 159 147 149 155 151 148 146 145 149 143 124 111 101 90 86 82 93 90 66 79 100 111 132 130 131 134 98 64 59 79 88 77 72 69 80
174 164 151 145 139 134 134 138 138 140 147 148 144 147 148 147 142 136 132 120 103 99 95 83 79 70 51 59 63 73 91 91 77 67 67 80 58 64 91 90 75 65 56
172 160 151 141 128 127 130 127 129 135 141 146 150 152 151 148 142 135 130 117 107 92 82 76 74 71 52 51 60 72 86 79 63 57 59 74 78 73 88 98 91 69 50
125 120 114 107 113 118 120 124 131 137 151 159 158 152 152 150 146 140 128 111 106 101 94 77 66 69 56 46 55 73 90 84 70 57 50 58 69 71 76 101 106 91 55
111 110 107 106 115 124 122 124 132 144 145 137 133 134 141 140 134 122 115 112 106 99 89 80 64 57 50 49 57 71 89 99 86 68 51 44 55 59 56 70 89 107 105
105 110 107 98 92 110 121 120 127 128 121 121 119 119 119 122 124 119 112 111 114 108 97 86 68 49 41 47 57 69 76 95 97 84 65 58 57 57 53 58 67 76 83
106 105 109 98 82 85 112 119 121 119 118 114 112 108 104 100 109 118 120 112 108 112 110 100 84 54 38 45 61 70 73 79 87 85 81 70 64 63 60 55 56 61 69
105 106 105 102 88 75 88 111 121 121 118 114 111 111 110 102 94 93 103 111 116 120 121 117 108 89 64 52 54 69 80 80 83 82 76 69 64 61 57 51 49 52 57
108 110 114 115 107 93 90 105 120 122 117 114 116 114 110 114 107 93 75 90 88 122 136 133 131 125 103 58 92 108 97 98 101 94 77 66 61 57 49 45 41 41 44
118 115 115 119 117 109 102 106 122 128 129 127 126 123 120 118 119 115 89 60 71 76 81 95 112 86 98 103 94 91 89 93 103 93 85 74 65 63 57 50 42 37 34